Back to catalog

FENGYUN 1C DEB

AliveSSO
NORAD 31235·DEBRIS·🇨🇳 China

Launched May 10, 1999 from Taiyuan Satellite Launch Center

Loading…

Next Passes (next 24 hours)

TLE

FreshSource: Space-Track

Epoch: Sep 14, 2026, 05:25 UTC

1 31235U 99025BLR 26257.22632795  .00006464  00000-0  24915-2 0  9990
2 31235  98.4508  39.3272 0161908 296.5000  61.9653 14.23641390670818

Track FENGYUN 1C DEB in real time with AllMySat

Download on the App Store